| time (UTC) | temp F | wind direction | speed MPH | gust MPH | rain 1hr in | rain 24hr in | rain mn in | humidity % | barometer mb |
| 20260502181530 | 63 | 37 | 3.0 | 12.0 | 0.00 | 0.00 | 0.00 | 25 | 1007.0 |
| 20260502163010 | 61 | 293 | 6.0 | 13.0 | 0.00 | 0.00 | 0.00 | 25 | 1007.0 |
| 20260502161507 | 61 | 263 | 6.0 | 12.0 | 0.00 | 0.00 | 0.00 | 25 | 1007.1 |
| 20260502151612 | 59 | 266 | 4.0 | 10.0 | 0.00 | 0.00 | 0.00 | 26 | 1006.7 |
| 20260502123022 | 55 | 278 | 3.0 | 9.0 | 0.00 | 0.00 | 0.00 | 27 | 1005.7 |
| 20260502121522 | 56 | 234 | 5.0 | 11.0 | 0.00 | 0.00 | 0.00 | 27 | 1005.7 |
| 20260502114512 | 55 | 221 | 3.0 | 8.0 | 0.00 | 0.00 | 0.00 | 28 | 1005.6 |
| 20260502113009 | 55 | 214 | 2.0 | 11.0 | 0.00 | 0.00 | 0.00 | 29 | 1005.8 |
| 20260502111505 | 55 | 305 | 3.0 | 10.0 | 0.00 | 0.00 | 0.00 | 29 | 1005.8 |
| 20260502110002 | 55 | 229 | 2.0 | 6.0 | 0.00 | 0.00 | 0.00 | 30 | 1005.9 |
| 20260502104610 | 56 | 193 | 1.0 | 8.0 | 0.00 | 0.00 | 0.00 | 30 | 1006.0 |
| 20260502103056 | 55 | 214 | 3.0 | 8.0 | 0.00 | 0.00 | 0.00 | 29 | 1006.0 |
| 20260502101608 | 56 | 212 | 2.0 | 5.0 | 0.00 | 0.00 | 0.00 | 28 | 1006.1 |
| 20260502071519 | 56 | 176 | 0.0 | 3.0 | 0.00 | 0.00 | 0.00 | 26 | 1007.2 |
| 20260502070026 | 56 | 162 | 0.0 | 4.0 | 0.00 | 0.00 | 0.00 | 27 | 1007.1 |
| 20260502064511 | 57 | 189 | 1.0 | 6.0 | 0.00 | 0.00 | 0.00 | 28 | 1007.3 |
| 20260502063018 | 56 | 185 | 1.0 | 3.0 | 0.00 | 0.00 | 0.00 | 36 | 1007.2 |
| 20260502061512 | 56 | 205 | 1.0 | 3.0 | 0.00 | 0.00 | 0.00 | 32 | 1007.2 |
| 20260502060026 | 55 | 123 | 0.0 | 2.0 | 0.00 | 0.00 | 0.00 | 38 | 1007.4 |
| 20260502054506 | 54 | 130 | 1.0 | 3.0 | 0.00 | 0.00 | 0.00 | 34 | 1007.4 |
| 20260502053002 | 53 | 146 | 1.0 | 2.0 | 0.00 | 0.00 | 0.00 | 34 | 1007.5 |
| 20260502051603 | 53 | 142 | 1.0 | 3.0 | 0.00 | 0.00 | 0.00 | 34 | 1007.2 |
| 20260502044558 | 53 | 166 | 2.0 | 5.0 | 0.00 | 0.00 | 0.00 | 35 | 1007.0 |
| 20260502043110 | 52 | 101 | 3.0 | 5.0 | 0.00 | 0.00 | 0.00 | 40 | 1006.8 |
| 20260502041613 | 52 | 147 | 2.0 | 4.0 | 0.00 | 0.00 | 0.00 | 42 | 1006.7 |
| 20260502040056 | 52 | 111 | 2.0 | 6.0 | 0.00 | 0.00 | 0.00 | 42 | 1006.4 |
| 20260502034549 | 52 | 102 | 2.0 | 5.0 | 0.00 | 0.00 | 0.00 | 48 | 1006.1 |
| 20260502033046 | 52 | 117 | 1.0 | 4.0 | 0.00 | 0.00 | 0.00 | 60 | 1006.1 |
| 20260502031544 | 52 | 112 | 2.0 | 5.0 | 0.00 | 0.00 | 0.00 | 64 | 1005.9 |
| 20260502030059 | 52 | 133 | 1.0 | 3.0 | 0.00 | 0.00 | 0.00 | 66 | 1005.8 |
| 20260502024552 | 53 | 113 | 1.0 | 4.0 | 0.00 | 0.00 | 0.00 | 64 | 1005.5 |
| 20260502023049 | 54 | 103 | 2.0 | 4.0 | 0.00 | 0.00 | 0.00 | 61 | 1005.6 |
| 20260502021533 | 55 | 104 | 2.0 | 9.0 | 0.00 | 0.00 | 0.00 | 55 | 1005.6 |
| 20260502020031 | 56 | 94 | 5.0 | 11.0 | 0.00 | 0.00 | 0.00 | 47 | 1005.5 |
| 20260502014531 | 57 | 101 | 2.0 | 13.0 | 0.00 | 0.00 | 0.00 | 39 | 1005.5 |
| 20260502013025 | 58 | 91 | 6.0 | 11.0 | 0.00 | 0.00 | 0.00 | 37 | 1005.6 |
| 20260502011523 | 59 | 98 | 5.0 | 11.0 | 0.00 | 0.00 | 0.00 | 40 | 1005.5 |
| 20260502010024 | 60 | 96 | 3.0 | 12.0 | 0.00 | 0.00 | 0.00 | 46 | 1005.7 |
| 20260502004520 | 60 | 103 | 7.0 | 14.0 | 0.00 | 0.00 | 0.00 | 45 | 1005.6 |
| 20260502003018 | 60 | 98 | 7.0 | 15.0 | 0.00 | 0.00 | 0.00 | 44 | 1005.3 |
| 20260502001517 | 62 | 113 | 5.0 | 14.0 | 0.00 | 0.00 | 0.00 | 41 | 1005.3 |
| 20260502000014 | 61 | 110 | 4.0 | 13.0 | 0.00 | 0.00 | 0.00 | 35 | 1005.5 |
| 20260501234514 | 61 | 103 | 6.0 | 13.0 | 0.00 | 0.00 | 0.00 | 36 | 1005.6 |
| 20260501233009 | 61 | 83 | 4.0 | 11.0 | 0.00 | 0.00 | 0.00 | 37 | 1005.4 |
| 20260501231504 | 61 | 102 | 6.0 | 14.0 | 0.00 | 0.00 | 0.00 | 40 | 1005.2 |
| 20260501230003 | 61 | 94 | 9.0 | 16.0 | 0.00 | 0.00 | 0.00 | 42 | 1005.5 |
| 20260501224608 | 61 | 68 | 8.0 | 16.0 | 0.00 | 0.00 | 0.00 | 42 | 1005.8 |
| 20260501223058 | 61 | 112 | 8.0 | 16.0 | 0.00 | 0.00 | 0.00 | 43 | 1005.7 |
| 20260501221608 | 62 | 98 | 9.0 | 17.0 | 0.00 | 0.00 | 0.00 | 42 | 1005.9 |
| 20260501220101 | 62 | 102 | 5.0 | 16.0 | 0.00 | 0.00 | 0.00 | 40 | 1006.2 |
| 20260501214549 | 62 | 101 | 6.0 | 16.0 | 0.00 | 0.00 | 0.00 | 39 | 1006.3 |
| 20260501213049 | 62 | 39 | 6.0 | 14.0 | 0.00 | 0.00 | 0.00 | 44 | 1006.2 |
| 20260501211544 | 62 | 75 | 5.0 | 16.0 | 0.00 | 0.00 | 0.00 | 39 | 1006.5 |
| 20260501210041 | 62 | 51 | 8.0 | 16.0 | 0.00 | 0.00 | 0.00 | 32 | 1006.7 |
| 20260501204543 | 63 | 90 | 5.0 | 13.0 | 0.00 | 0.00 | 0.00 | 27 | 1006.7 |
| 20260501203039 | 62 | 86 | 5.0 | 13.0 | 0.00 | 0.00 | 0.00 | 29 | 1006.7 |
| 20260501201533 | 62 | 79 | 7.0 | 14.0 | 0.00 | 0.00 | 0.00 | 26 | 1006.8 |
| 20260501200031 | 62 | 110 | 5.0 | 14.0 | 0.00 | 0.00 | 0.00 | 30 | 1006.7 |
| 20260501194628 | 62 | 71 | 6.0 | 13.0 | 0.00 | 0.00 | 0.00 | 32 | 1006.9 |
| 20260501193032 | 61 | 84 | 8.0 | 12.0 | 0.00 | 0.00 | 0.00 | 31 | 1006.9 |
| 20260501191524 | 62 | 76 | 6.0 | 13.0 | 0.00 | 0.00 | 0.00 | 29 | 1007.0 |
| 20260501190025 | 62 | 102 | 5.0 | 12.0 | 0.00 | 0.00 | 0.00 | 29 | 1007.2 |
| 20260501184525 | 61 | 81 | 6.0 | 13.0 | 0.00 | 0.00 | 0.00 | 31 | 1007.3 |
| 20260501183018 | 60 | 82 | 1.0 | 13.0 | 0.00 | 0.00 | 0.00 | 33 | 1007.6 |